Regional Weather Roundup
Issued by NWS Grand Forks, ND

Home | Current Version | Previous Version | Text Only | Print | Product List | Glossary On
Versions: 1 2 3 4 5 6 7 8 9 10 11 12 13 14 15 16 17 18 19 20 21 22 23 24 25 26 27 28 29 30 31 32 33 34 35 36 37 38 39 40 41 42 43 44 45 46 47 48 49 50
000
ASUS43 KFGF 222131
RWRFGF
PRAIRIE TO PINES  WEATHER ROUNDUP
NATIONAL WEATHER SERVICE EASTERN NORTH DAKOTA/GRAND FORKS ND
400 PM CDT SUN APR 22 2018

 **SATELLITE DATA USED TO AUGMENT SKY COVER AT AUTOMATED STATIONS**
 *****  WEATHER ACROSS EASTERN NORTH DAKOTA  *****

CITY           SKY/WX    TMP DP  RH WIND       PRES   REMARKS
GRAND FORKS    FAIR      61  45  55 SW15G28   30.14F
GRAND FRKS AFB FAIR      63  43  49 S18       30.13F
GRAND FRKS NWS   N/A     61  43  51 SW24      30.12F
DEVILS LAKE    PTSUNNY   61  41  47 SW12      30.11F
FARGO          PTSUNNY   65  37  35 SW16G28   30.17F
WAHPETON ARPT  FAIR      63  34  34 S16G23    30.20F
$$

 ***** WEATHER ACROSS CENTRAL AND WESTERN NORTH DAKOTA  *****

CITY           SKY/WX    TMP DP  RH WIND       PRES   REMARKS
BISMARCK       FAIR      70  39  32 SW9G20    30.08F
MINOT          PTSUNNY   62  27  26 SW6       30.10S
JAMESTOWN      FAIR      64  38  38 S17G29    30.13F
MINOT AFB      FAIR      63  29  28 SW9       30.08F
GARRISON         N/A     60  33  36 VRB3      30.11S
WILLISTON      PTSUNNY   65  24  21 NW9       30.10F
DICKINSON      FAIR      67  21  17 W5        30.08F
HETTINGER      FAIR      67  34  29 E6        30.09F
$$

 *****  OTHER AIRPORT OBSERVATIONS IN OUR AREA  *****

CITY           SKY/WX    TMP DP  RH WIND       PRES   REMARKS
WALHALLA       FAIR      61  39  44 W10       30.09F
GRAFTON AIRPOR NOT AVBL
VALLEY CITY AR NOT AVBL
CANDO          NOT AVBL
CAVALIER APRT    N/A     61  43  51 SW13      30.10S
GWINNER          N/A     64  39  39 SW18      30.17F
SHEYENNE NWR     N/A     66  38  35 SW14      29.95S
ROLLA          MOCLDY    59  34  38 W10       30.10F
 ***** THE ABOVE OBSERVATIONS ARE NON NWS ARE NOT QUALITY
       CONTROLLED AND MAY MIS-REPORT RAIN FOR SNOW...
$$

  *****  WEATHER ACROSS NORTHERN MINNESOTA  *****

CITY           SKY/WX    TMP DP  RH WIND       PRES   REMARKS
FLAG ISLAND    FAIR      54  30  40 SW21G30   30.10F
WARROAD        FAIR      63  43  48 SW17G25   30.13F
ROSEAU         FAIR      61  45  55 SW15G25   30.14S
HALLOCK        FAIR      64  39  39 W13G24    30.10F
THF RVR FALLS  FAIR      59  41  51 SW21G30   30.17F
BAUDETTE       FAIR      63  34  33 SW12G22   30.14F
WASKISH        CLOUDY    61  30  31 W6        30.17F
CROOKSTON      FAIR      63  43  48 SW21G26   30.16F
STEPHEN NDAWN    N/A     61  46  59 S18         N/A
GREENBUSH NDAW   N/A     57  46  67 S16         N/A
$$
  *****  WEATHER ACROSS CENTRAL AND WEST MINNESOTA  *****

CITY           SKY/WX    TMP DP  RH WIND       PRES   REMARKS
FOSSTON        FAIR      61  37  41 S21G28    30.19F
BEMIDJI        FAIR      63  31  30 SW13G20   30.18F
PARK RAPIDS    FAIR      63  33  32 SW15G24   30.21F
ELBOW LAKE     FAIR      61  38  42 S16       30.23F
WADENA         FAIR      61  36  39 S16       30.22F
DETROIT LAKES  FAIR      61  32  33 SW13G21   30.21F
MOORHEAD       FAIR      64  39  39 S13       30.19F
FERGUS FALLS   FAIR      63  39  42 S17       30.19F
MORRIS MN      FAIR      61  41  48 S15G23    30.23F
STAPLES        FAIR      61  30  31 S12G17    30.23F
$$
  *****  WEATHER ELSEWHERE ACROSS MINNESOTA  *****

CITY           SKY/WX    TMP DP  RH WIND       PRES   REMARKS
DULUTH         FAIR      60  29  30 SW8       30.24F
INTRNTL FALLS  FAIR      63  27  25 SW12G20   30.16F
ELY            FAIR      61  25  25 S9G16     30.20F
CLOQUET        FAIR      61  25  25 SW10      30.25S
WHEATON        FAIR      61  36  39 S13       30.23F
BRAINERD       FAIR      63  31  30 SW10G18   30.24F
HIBBING        FAIR      60  27  28 SW10G20   30.22F
ALEXANDRIA     FAIR      63  35  35 S14G23    30.25F
SAINT CLOUD    FAIR      61  33  35 VRB7      30.25F
MINNEAPOLIS    FAIR      63  34  33 VRB7      30.27F
$$

  *****  WEATHER ACROSS SOUTH DAKOTA  *****

CITY           SKY/WX    TMP DP  RH WIND       PRES   REMARKS
SIOUX FALLS    FAIR      62  35  36 E13G25    30.21F
BROOKINGS      NOT AVBL
WATERTOWN      FAIR      59  39  47 S13       30.21F
HURON          FAIR      62  37  39 S18G25    30.19F
SISSETON         N/A     63  39  41 S18       30.20F
ABERDEEN       FAIR      65  33  30 S20       30.18F
MITCHELL       FAIR      61  38  42 SE10G28   30.20F
PIERRE         FAIR      63  39  41 S15       30.13F
MOBRIDGE       FAIR      65  40  39 S15       30.10F
RAPID CITY     FAIR      66  38  35 NE7       30.08F
$$

  *****  SOME WEATHER IN NEARBY STATES *****

CITY           SKY/WX    TMP DP  RH WIND       PRES   REMARKS
GLASGOW MT     FAIR      64  24  21 W13       30.09F
GREAT FALLS MT FAIR      57  15  19 W10G16    30.11F
CHEYENNE WY    FAIR      61  26  26 VRB5      30.14F
SCOTTSBLUFF NE FAIR      61  42  49 VRB5      30.12F
OMAHA NE       PTSUNNY   70  31  23 E14       30.15F
DES MOINES IA  FAIR      72  30  21 E14G22    30.16F
DAVENPORT IA   FAIR      66  27  23 E20       30.21F
CHICAGO IL     PTSUNNY   60  25  26 NE16G23   30.26F
EAU CLAIRE WI  FAIR      63  30  28 S7        30.27F
LA CROSSE WI   FAIR      64  28  25 E7        30.28F
$$

  *****  SOME NATIONAL WEATHER *****

CITY           SKY/WX    TMP DP  RH WIND       PRES   REMARKS
LA GUARDIA NY  FAIR      61  20  20 S15       30.32S
RALEIGH NC     CLOUDY    68  41  37 VRB6      30.29F
ATLANTA GA     LGT RAIN  60  59  96 E14G24    30.10F FOG
NEW ORLEANS LA FAIR      79  65  62 W20G28    29.85S
OKLAHOMA CITY  PTSUNNY   63  43  48 N22       30.03F
ALBUQUERQUE NM FAIR      71  21  15 VRB3      30.10F
SALT LAKE CITY FAIR      76  29  17 N8        30.02F
LOS ANGELES CA FAIR      72  52  49 W10       29.93F
BOISE ID       FAIR      62  28  27 NW20G29   30.06F
SEATTLE WA     FAIR      57  39  51 N12       30.36F
$$

*** WEATHER ACROSS MANITOBA...SASKATCHEWAN AND ONTARIO ***
                ***ONTARIO***

CITY           SKY/WX    TMP DP  RH WIND       PRES   REMARKS
GERALDTON      PTSUNNY   54  14  20 SW20G28   30.23F
THUNDER BAY    MOSUNNY   61  19  20 S13       30.25F
SIOUX LOOKOUT  CLOUDY    57  30  35 SW14G23   30.12F
TORONTO        MOSUNNY   59  18  20 S12       30.36F
BIG TROUT LK   MOSUNNY   50  30  46 S13G23    29.90F
PICKLE LAKE    PTSUNNY   59  23  25 SW21G33   30.04F
DRYDEN         SUNNY     61  30  31 SW16G22   30.11F
KENORA         PTSUNNY   59  32  36 S16G25    30.10F
$$
                *** MANITOBA***

CITY           SKY/WX    TMP DP  RH WIND       PRES   REMARKS
BRANDON        PTSUNNY   61  36  39 W18G25    30.04F
DAUPHIN        SUNNY     63  30  29 W31G43    29.95R
ISLAND LAKE    CLOUDY    52  37  58 SW17G25   29.77F
PILOT MOUND      N/A     61  30  31 W9          N/A
THE PAS        CLOUDY    46  34  61 SW20      29.68R
THOMPSON       LGT RAIN  41  39  93 S8        29.49F
WINNIPEG       PTSUNNY   63  39  42 SW15      30.05F
LYNN LAKE      LGT RAIN  34  34 100 N12       29.52R FOG
CHURCHILL      LGTSLEET  28  27  93 E26G36    29.76F VSB 1   WCI  13
GILLAM         CLOUDY    48  37  66 S12G20    29.61F
$$
                ***SASKATCHEWAN***

CITY           SKY/WX    TMP DP  RH WIND       PRES   REMARKS
ESTEVAN        MOSUNNY   64  27  24 W18G25    30.07F
KINDERSLEY     PTSUNNY   52  32  46 W21G29    30.06R
LLOYDMINSTER   CLOUDY    43  34  70 NW21G32   30.03R
PRINCE ALBERT  PTSUNNY   48  36  61 W23G33    29.89R
REGINA         MOSUNNY   59  27  29 W23G36    30.05S
YORKTON        SUNNY     55  28  35 W31G43    29.97R
N. BATTLEFORD  CLOUDY    46  34  61 W30G37    30.00S
LA RONGE       LGT RAIN  39  36  87 W21G29    29.72R
SASKATOON      PTSUNNY   52  34  50 W30G39    29.98R
SWIFT CURRENT  MOSUNNY   54  21  28 W20G30    30.08S
$$
NOTE: THESE ARE AUTOMATED STATIONS WITH LIMITED QUALITY CONTROL
      "FAIR" INDICATES FEW OR NO CLOUDS BELOW 12,000 FEET WITH NO
      SIGNIFICANT WEATHER AND/OR OBSTRUCTIONS TO VISIBILITY.
      SKY/WX - SKY CONDITION AND SIGNIFICANT WEATHER.
      TMP - AIR TEMPERATURE.    DP   - DEWPOINT TEMPERATURE.
      RH  - RELATIVE HUMIDITY.  PRES - PRESSURE.
      HX  - HEAT INDEX.         WCI  - WIND CHILL INDEX.
$




USA.gov is the U.S. government's official web portal to all federal, state and local government web resources and services.